Home   Weather   Bend   Past weeks

Flag for USA Past Weather in Bend, Oregon, USA — Yesterday and Last 2 Weeks

Now
45 °F

Broken clouds.


Feels Like: 39 °F
Forecast: 29 / 52 °F
Wind: 14 mph from West

Location: Roberts Field Airport

Current Time: Apr 24, 2017 at 8:13:16 pm

Latest Report: Apr 24, 2017 at 6:56 pm


Visibility: 10 mi

Pressure: 29.81 "Hg (26.06 "Hg at 1103m altitude)

Humidity: 71%

Dew Point: 36 °F

Location of BendLocation

Past Weather in Bend — Graph

°F

Bend Temperature Yesterday

Maximum temperature yesterday: 55 °F (at 11:56 am)
Minimum temperature yesterday: 34 °F (at 2:56 am)
Average temperature yesterday: 46 °F

High & Low Weather Summary for the Past Weeks

 TemperatureHumidityPressure
High66 °F (Apr 21, 4:56 pm)93% (Apr 12, 12:56 am)30.39 "Hg (Apr 12, 12:56 am)
Low20 °F (Apr 15, 5:56 am)15% (Apr 22, 2:56 pm)29.66 "Hg (Apr 12, 6:56 pm)
Average44 °F62%29.97 "Hg
* Reported Apr 9 6:56 pm — Apr 24 6:56 pm, Bend, Weather by CustomWeather, © 2017

Note: Actual official high and low records may vary slightly from our data, if they occured in-between our weather recording intervals... More about our weather records

Advertising

Bend Weather History for the Previous 24 Hours

Scroll right to see more
 ConditionsComfort  
Time TempWeatherWind HumidityBarometerVisibility
6:56 pm
Mon, Apr 24
45 °FBroken clouds.14 mph71%29.81 "Hg10 mi
5:56 pm44 °FRain. Mostly cloudy.20 mph73%29.79 "Hg4 mi
4:56 pm52 °FMostly cloudy.21 mph43%29.72 "Hg10 mi
3:56 pm53 °FOvercast.8 mph41%29.69 "Hg10 mi
2:56 pm50 °FMostly cloudy.10 mph57%29.70 "Hg10 mi
1:56 pm51 °FMostly cloudy.13 mph41%29.68 "Hg10 mi
12:56 pm50 °FOvercast.18 mph48%29.66 "Hg10 mi
11:56 am50 °FMostly cloudy.15 mph52%29.67 "Hg10 mi
10:56 am48 °FOvercast.16 mph56%29.67 "Hg10 mi
9:56 am46 °FMore clouds than sun.16 mph61%29.68 "Hg10 mi
8:56 am45 °FCloudy.14 mph60%29.68 "Hg10 mi
7:56 am42 °FBroken clouds.10 mph71%29.69 "Hg10 mi
6:56 am41 °FLight rain. Mostly cloudy.14 mph70%29.69 "Hg10 mi
6:34 am42 °FMostly cloudy.16 mph68%29.69 "Hg10 mi
5:56 am41 °FPassing clouds.12 mph67%29.69 "Hg10 mi
4:56 am39 °FPassing clouds.5 mph76%29.70 "Hg10 mi
3:56 am41 °FPassing clouds.3 mph70%29.70 "Hg10 mi
2:56 am42 °FPassing clouds.3 mph68%29.71 "Hg10 mi
1:56 am43 °FMostly cloudy.No wind65%29.73 "Hg10 mi
12:56 am44 °FMostly cloudy.5 mph63%29.75 "Hg10 mi
11:56 pm
Sun, Apr 23
43 °FMostly cloudy.No wind68%29.76 "Hg10 mi
10:56 pm43 °FOvercast.3 mph68%29.78 "Hg10 mi
9:56 pm43 °FMostly cloudy.6 mph65%29.81 "Hg10 mi
8:56 pm45 °FPassing clouds.6 mph60%29.82 "Hg10 mi
Weather by CustomWeather, © 2017

See weather overviewHow to use our weather pages